CFG4XD EDDF-LDSP

Flight info

Callsign CFG4XD
Flight time 1h 18m
Altitude 35000
Route CINDY2D CINDY Z74 LAMPU DCT NOMBO Y161 MAH DCT VAVOR DCT RADIZ DCT GIMIX DCT ALIVO DCT NUPSO
Aircraft A21N/M-SDE2E3FGHIRWXY/LB1

Departure

Time 2026-05-05 02:51
Airport Frankfurt Main Airport (EDDF)

Arrival

Time 2026-05-05 04:10
Airport Split Saint Jerome Airport (LDSP)
Time Latitude Longitude Altitude Speed Heading
2026-05-05 02:26 50.04180 8.56129 356 ft 0 kts 160°
2026-05-05 02:45 50.04179 8.56130 362 ft 1 kts 160°
2026-05-05 02:45 50.04150 8.56147 360 ft 8 kts 159°
2026-05-05 02:45 50.04116 8.56212 360 ft 9 kts 89°
2026-05-05 02:45 50.04137 8.56315 357 ft 11 kts 68°
2026-05-05 02:46 50.04163 8.56430 361 ft 12 kts 70°
2026-05-05 02:46 50.04193 8.56554 365 ft 14 kts 70°
2026-05-05 02:46 50.04228 8.56705 365 ft 14 kts 70°
2026-05-05 02:46 50.04251 8.56802 366 ft 14 kts 69°
2026-05-05 02:47 50.04302 8.57009 368 ft 16 kts 70°
2026-05-05 02:47 50.04328 8.57120 370 ft 17 kts 69°
2026-05-05 02:47 50.04370 8.57296 370 ft 18 kts 70°
2026-05-05 02:47 50.04419 8.57489 366 ft 20 kts 67°
2026-05-05 02:48 50.04460 8.57674 369 ft 18 kts 71°
2026-05-05 02:48 50.04507 8.57871 369 ft 20 kts 70°
2026-05-05 02:48 50.04558 8.58086 370 ft 23 kts 69°
2026-05-05 02:48 50.04610 8.58302 375 ft 21 kts 70°
2026-05-05 02:49 50.04647 8.58461 372 ft 10 kts 73°
2026-05-05 02:49 50.04624 8.58570 372 ft 13 kts 147°
2026-05-05 02:49 50.04529 8.58616 374 ft 15 kts 178°
2026-05-05 02:49 50.04476 8.58539 373 ft 0 kts 249°
2026-05-05 02:50 50.04421 8.58313 372 ft 54 kts 250°
2026-05-05 02:50 50.04198 8.57372 372 ft 132 kts 249°
2026-05-05 02:51 50.03790 8.55683 506 ft 182 kts 250°
2026-05-05 02:51 50.03332 8.53760 1097 ft 193 kts 250°
2026-05-05 02:51 50.02849 8.51875 2079 ft 185 kts 243°
2026-05-05 02:51 50.01941 8.50320 2765 ft 208 kts 210°
2026-05-05 02:52 50.00581 8.49413 3808 ft 215 kts 195°
2026-05-05 02:52 49.99099 8.49188 4937 ft 215 kts 172°
2026-05-05 02:52 49.97740 8.50104 5633 ft 218 kts 143°
2026-05-05 02:52 49.96757 8.51945 5955 ft 224 kts 124°
2026-05-05 02:53 49.95982 8.54107 5991 ft 244 kts 121°
2026-05-05 02:53 49.95144 8.56562 6274 ft 277 kts 121°
2026-05-05 02:53 49.94184 8.59331 7167 ft 293 kts 121°
2026-05-05 02:53 49.93226 8.62077 8625 ft 287 kts 121°
2026-05-05 02:54 49.92283 8.64751 9947 ft 288 kts 122°
2026-05-05 02:54 49.91273 8.67583 10741 ft 308 kts 122°
2026-05-05 02:54 49.90178 8.70629 11188 ft 337 kts 122°
2026-05-05 02:54 49.89009 8.73880 11895 ft 352 kts 121°
2026-05-05 02:55 49.87804 8.77233 12852 ft 360 kts 121°
2026-05-05 02:55 49.86572 8.80655 13871 ft 366 kts 122°
2026-05-05 02:55 49.85301 8.84173 14759 ft 373 kts 121°
2026-05-05 02:55 49.84036 8.87664 15650 ft 379 kts 122°
2026-05-05 02:56 49.82722 8.91289 16592 ft 384 kts 122°
2026-05-05 02:56 49.81406 8.94911 17521 ft 388 kts 122°
2026-05-05 02:56 49.80070 8.98583 18391 ft 393 kts 123°
2026-05-05 02:56 49.78747 9.02213 19100 ft 399 kts 123°
2026-05-05 02:57 49.77357 9.05989 19787 ft 405 kts 124°
2026-05-05 02:57 49.75727 9.09541 20477 ft 406 kts 135°
2026-05-05 02:57 49.73788 9.12729 21175 ft 409 kts 139°
2026-05-05 02:57 49.71705 9.15754 21874 ft 413 kts 142°
2026-05-05 02:58 49.69550 9.18688 22572 ft 418 kts 143°
2026-05-05 02:58 49.67339 9.21631 23240 ft 423 kts 143°
2026-05-05 02:58 49.65089 9.24619 23596 ft 430 kts 143°
2026-05-05 02:58 49.62806 9.27672 23751 ft 439 kts 143°
2026-05-05 02:59 49.60486 9.30804 23912 ft 448 kts 143°
2026-05-05 02:59 49.58130 9.34005 24084 ft 455 kts 143°
2026-05-05 02:59 49.55778 9.37218 24405 ft 458 kts 142°
2026-05-05 02:59 49.53393 9.40481 24749 ft 460 kts 142°
2026-05-05 03:00 49.50972 9.43792 25096 ft 462 kts 142°
2026-05-05 03:00 49.48551 9.47100 25530 ft 462 kts 142°
2026-05-05 03:00 49.46141 9.50386 25900 ft 463 kts 142°
2026-05-05 03:00 49.43724 9.53671 26302 ft 463 kts 143°
2026-05-05 03:01 49.41315 9.56941 26797 ft 461 kts 143°
2026-05-05 03:01 49.38919 9.60188 27264 ft 459 kts 143°
2026-05-05 03:01 49.36527 9.63425 27710 ft 457 kts 143°
2026-05-05 03:01 49.34148 9.66657 28126 ft 456 kts 142°
2026-05-05 03:02 49.31870 9.69940 28638 ft 454 kts 140°
2026-05-05 03:02 49.29599 9.73372 29112 ft 452 kts 140°
2026-05-05 03:02 49.27412 9.76746 29497 ft 452 kts 139°
2026-05-05 03:02 49.25208 9.80165 29851 ft 451 kts 139°
2026-05-05 03:03 49.23016 9.83553 30174 ft 451 kts 140°
2026-05-05 03:03 49.20841 9.86895 30427 ft 450 kts 140°
2026-05-05 03:03 49.18608 9.90306 30713 ft 450 kts 140°
2026-05-05 03:03 49.16388 9.93682 30998 ft 449 kts 140°
2026-05-05 03:04 49.14183 9.97023 31273 ft 448 kts 140°
2026-05-05 03:04 49.12001 10.00323 31537 ft 448 kts 140°
2026-05-05 03:04 49.09637 10.03891 31820 ft 447 kts 140°
2026-05-05 03:04 49.07393 10.07273 32073 ft 447 kts 140°
2026-05-05 03:05 49.05176 10.10554 32331 ft 446 kts 141°
2026-05-05 03:05 49.02918 10.13796 32563 ft 445 kts 141°
2026-05-05 03:05 49.00661 10.16984 32781 ft 445 kts 142°
2026-05-05 03:05 48.98397 10.20159 33035 ft 443 kts 142°
2026-05-05 03:06 48.96124 10.23343 33295 ft 443 kts 142°
2026-05-05 03:06 48.93842 10.26544 33512 ft 442 kts 142°
2026-05-05 03:06 48.91585 10.29717 33727 ft 442 kts 142°
2026-05-05 03:06 48.89330 10.32891 33940 ft 441 kts 142°
2026-05-05 03:07 48.87086 10.36052 34110 ft 441 kts 142°
2026-05-05 03:07 48.84853 10.39192 34279 ft 441 kts 142°
2026-05-05 03:07 48.82577 10.42433 34425 ft 441 kts 140°
2026-05-05 03:07 48.80435 10.45695 34531 ft 443 kts 139°
2026-05-05 03:08 48.78305 10.49084 34672 ft 444 kts 138°
2026-05-05 03:08 48.76196 10.52505 34804 ft 444 kts 137°
2026-05-05 03:08 48.74120 10.55883 34910 ft 445 kts 137°
2026-05-05 03:09 48.70605 10.61567 34925 ft 445 kts 138°
2026-05-05 03:09 48.66297 10.68460 34923 ft 444 kts 138°
2026-05-05 03:10 48.62077 10.75161 34920 ft 444 kts 138°
2026-05-05 03:10 48.57818 10.81911 34911 ft 444 kts 138°
2026-05-05 03:11 48.53577 10.88683 34900 ft 445 kts 137°
2026-05-05 03:11 48.49353 10.95432 34911 ft 446 kts 137°
2026-05-05 03:12 48.45076 11.02156 34911 ft 446 kts 138°
2026-05-05 03:12 48.40767 11.08864 34911 ft 446 kts 138°
2026-05-05 03:13 48.36503 11.15489 34913 ft 446 kts 138°
2026-05-05 03:13 48.32175 11.22197 34912 ft 446 kts 138°
2026-05-05 03:14 48.27852 11.28877 34909 ft 448 kts 138°
2026-05-05 03:14 48.23470 11.35453 34910 ft 448 kts 140°
2026-05-05 03:15 48.18987 11.41905 34908 ft 448 kts 140°
2026-05-05 03:15 48.14506 11.48309 34907 ft 448 kts 140°
2026-05-05 03:16 48.10034 11.54704 34911 ft 448 kts 140°
2026-05-05 03:16 48.05535 11.61132 34914 ft 449 kts 140°
2026-05-05 03:17 48.01018 11.67584 34921 ft 449 kts 140°
2026-05-05 03:17 47.96514 11.74007 34916 ft 449 kts 140°
2026-05-05 03:18 47.91983 11.80451 34926 ft 449 kts 140°
2026-05-05 03:18 47.87454 11.86873 34922 ft 449 kts 140°
2026-05-05 03:19 47.80644 11.96498 34919 ft 450 kts 140°
2026-05-05 03:19 47.76101 12.02900 34929 ft 450 kts 140°
2026-05-05 03:20 47.71557 12.09289 34925 ft 450 kts 140°
2026-05-05 03:20 47.67029 12.15637 34926 ft 450 kts 140°
2026-05-05 03:21 47.62476 12.22014 34931 ft 450 kts 140°
2026-05-05 03:21 47.57920 12.28379 34931 ft 450 kts 140°
2026-05-05 03:22 47.53361 12.34727 34936 ft 450 kts 140°
2026-05-05 03:22 47.48799 12.41059 34939 ft 450 kts 140°
2026-05-05 03:23 47.44231 12.47383 34942 ft 449 kts 140°
2026-05-05 03:23 47.39664 12.53691 34940 ft 450 kts 140°
2026-05-05 03:24 47.35111 12.59962 34959 ft 451 kts 140°
2026-05-05 03:24 47.30522 12.66269 34952 ft 451 kts 140°
2026-05-05 03:25 47.25929 12.72566 34974 ft 451 kts 140°
2026-05-05 03:25 47.21337 12.78845 34973 ft 450 kts 140°
2026-05-05 03:26 47.16739 12.85118 34982 ft 450 kts 140°
2026-05-05 03:26 47.12139 12.91375 34994 ft 451 kts 140°
2026-05-05 03:27 47.07524 12.97639 34993 ft 451 kts 140°
2026-05-05 03:27 47.02939 13.03846 35008 ft 452 kts 140°
2026-05-05 03:28 46.98315 13.10093 35016 ft 452 kts 140°
2026-05-05 03:28 46.93674 13.16346 35025 ft 452 kts 140°
2026-05-05 03:29 46.89042 13.22572 35031 ft 452 kts 140°
2026-05-05 03:29 46.84406 13.28788 35036 ft 453 kts 140°
2026-05-05 03:30 46.79758 13.35006 35037 ft 453 kts 140°
2026-05-05 03:30 46.75104 13.41214 35045 ft 454 kts 140°
2026-05-05 03:31 46.70434 13.47429 35039 ft 454 kts 140°
2026-05-05 03:31 46.65767 13.53625 35044 ft 454 kts 140°
2026-05-05 03:32 46.61095 13.59813 35039 ft 454 kts 140°
2026-05-05 03:32 46.56447 13.65954 35040 ft 454 kts 140°
2026-05-05 03:33 46.51670 13.71961 35043 ft 453 kts 146°
2026-05-05 03:33 46.46613 13.77422 35048 ft 453 kts 147°
2026-05-05 03:34 46.41502 13.82761 35041 ft 453 kts 147°
2026-05-05 03:34 46.36385 13.88069 35045 ft 453 kts 147°
2026-05-05 03:35 46.31263 13.93382 35046 ft 453 kts 147°
2026-05-05 03:35 46.26124 13.98711 35052 ft 454 kts 147°
2026-05-05 03:36 46.20984 14.04033 35049 ft 454 kts 147°
2026-05-05 03:36 46.15840 14.09348 35040 ft 454 kts 147°
2026-05-05 03:37 46.10698 14.14646 35039 ft 454 kts 147°
2026-05-05 03:37 46.05540 14.19949 35043 ft 456 kts 147°
2026-05-05 03:38 46.00397 14.25221 35046 ft 457 kts 147°
2026-05-05 03:38 45.95179 14.30560 35049 ft 457 kts 147°
2026-05-05 03:39 45.90026 14.35821 35048 ft 457 kts 147°
2026-05-05 03:39 45.84840 14.41106 35059 ft 457 kts 147°
2026-05-05 03:40 45.79657 14.46371 35059 ft 456 kts 147°
2026-05-05 03:40 45.74472 14.51625 35054 ft 457 kts 147°
2026-05-05 03:41 45.70123 14.56023 35057 ft 457 kts 147°
2026-05-05 03:41 45.64932 14.61263 35061 ft 457 kts 148°
2026-05-05 03:42 45.59770 14.66462 35068 ft 457 kts 148°
2026-05-05 03:42 45.54557 14.71698 35054 ft 458 kts 148°
2026-05-05 03:43 45.49175 14.76529 35063 ft 457 kts 152°
2026-05-05 03:43 45.43687 14.81087 35059 ft 456 kts 153°
2026-05-05 03:44 45.38174 14.85587 35054 ft 457 kts 153°
2026-05-05 03:44 45.32644 14.90091 35045 ft 458 kts 153°
2026-05-05 03:45 45.27111 14.94604 35048 ft 458 kts 153°
2026-05-05 03:45 45.21575 14.99113 35051 ft 458 kts 153°
2026-05-05 03:46 45.16043 15.03610 35044 ft 459 kts 153°
2026-05-05 03:46 45.10481 15.08121 35055 ft 461 kts 153°
2026-05-05 03:47 45.04908 15.12630 35055 ft 461 kts 153°
2026-05-05 03:47 44.99330 15.17134 34886 ft 461 kts 153°
2026-05-05 03:48 44.96567 15.19360 34104 ft 465 kts 154°
2026-05-05 03:48 44.93704 15.21655 33244 ft 468 kts 154°
2026-05-05 03:48 44.90873 15.23927 32567 ft 467 kts 154°
2026-05-05 03:48 44.88059 15.26191 31868 ft 467 kts 154°
2026-05-05 03:49 44.85236 15.28460 31171 ft 467 kts 154°
2026-05-05 03:49 44.82403 15.30735 30450 ft 467 kts 154°
2026-05-05 03:49 44.79577 15.32999 29638 ft 468 kts 154°
2026-05-05 03:49 44.76744 15.35266 28870 ft 467 kts 153°
2026-05-05 03:50 44.73915 15.37525 28117 ft 466 kts 153°
2026-05-05 03:50 44.71100 15.39771 27325 ft 465 kts 153°
2026-05-05 03:50 44.68291 15.42009 26532 ft 464 kts 153°
2026-05-05 03:50 44.65480 15.44246 25714 ft 464 kts 153°
2026-05-05 03:51 44.62672 15.46478 25154 ft 463 kts 153°
2026-05-05 03:51 44.59853 15.48715 24794 ft 468 kts 153°
2026-05-05 03:51 44.57023 15.50958 24426 ft 468 kts 152°
2026-05-05 03:51 44.54196 15.53198 24082 ft 466 kts 152°
2026-05-05 03:52 44.51414 15.55401 23743 ft 463 kts 152°
2026-05-05 03:52 44.48592 15.57633 23324 ft 460 kts 152°
2026-05-05 03:52 44.45812 15.59830 22929 ft 458 kts 152°
2026-05-05 03:52 44.43037 15.62019 22528 ft 456 kts 152°
2026-05-05 03:53 44.40319 15.64162 22148 ft 453 kts 152°
2026-05-05 03:53 44.37584 15.66315 21752 ft 450 kts 152°
2026-05-05 03:53 44.34829 15.68481 21364 ft 446 kts 152°
2026-05-05 03:53 44.32160 15.70578 20990 ft 443 kts 152°
2026-05-05 03:54 44.29527 15.72644 20617 ft 440 kts 152°
2026-05-05 03:54 44.26866 15.74730 20244 ft 437 kts 152°
2026-05-05 03:54 44.24223 15.76798 19888 ft 435 kts 152°
2026-05-05 03:54 44.21614 15.78838 19536 ft 432 kts 152°
2026-05-05 03:55 44.18975 15.80900 19167 ft 429 kts 152°
2026-05-05 03:55 44.16390 15.82919 18817 ft 427 kts 152°
2026-05-05 03:55 44.13741 15.84762 18454 ft 421 kts 163°
2026-05-05 03:55 44.10907 15.85601 18066 ft 415 kts 174°
2026-05-05 03:56 44.08037 15.86061 17671 ft 412 kts 176°
2026-05-05 03:56 44.05186 15.86455 17277 ft 410 kts 176°
2026-05-05 03:56 44.02356 15.86842 16891 ft 408 kts 176°
2026-05-05 03:56 43.99565 15.87230 16507 ft 397 kts 176°
2026-05-05 03:57 43.96858 15.87612 16132 ft 385 kts 175°
2026-05-05 03:57 43.94240 15.87983 15762 ft 370 kts 175°
2026-05-05 03:57 43.91749 15.88338 15394 ft 348 kts 175°
2026-05-05 03:57 43.89409 15.88672 15042 ft 329 kts 175°
2026-05-05 03:58 43.87180 15.88989 14614 ft 315 kts 176°
2026-05-05 03:58 43.85020 15.89295 14003 ft 309 kts 175°
2026-05-05 03:58 43.82876 15.89598 13301 ft 305 kts 175°
2026-05-05 03:58 43.80774 15.89895 12603 ft 301 kts 175°
2026-05-05 03:59 43.78730 15.90185 11929 ft 297 kts 175°
2026-05-05 03:59 43.76689 15.90474 11262 ft 294 kts 175°
2026-05-05 03:59 43.74641 15.90764 10655 ft 288 kts 175°
2026-05-05 03:59 43.72660 15.91045 10160 ft 284 kts 175°
2026-05-05 04:00 43.70703 15.91322 9648 ft 282 kts 175°
2026-05-05 04:00 43.68769 15.91595 9152 ft 283 kts 175°
2026-05-05 04:00 43.66817 15.91870 8641 ft 282 kts 175°
2026-05-05 04:00 43.64841 15.92149 8124 ft 282 kts 175°
2026-05-05 04:01 43.62895 15.92424 7627 ft 281 kts 175°
2026-05-05 04:01 43.60978 15.92695 7148 ft 280 kts 175°
2026-05-05 04:01 43.59037 15.92969 6675 ft 279 kts 175°
2026-05-05 04:01 43.57101 15.93241 6168 ft 279 kts 175°
2026-05-05 04:02 43.55178 15.93512 5663 ft 278 kts 175°
2026-05-05 04:02 43.53261 15.93783 5183 ft 276 kts 174°
2026-05-05 04:02 43.51405 15.94044 4946 ft 266 kts 174°
2026-05-05 04:02 43.49584 15.94389 4513 ft 263 kts 166°
2026-05-05 04:03 43.47924 15.95399 4161 ft 259 kts 148°
2026-05-05 04:03 43.46475 15.96822 3863 ft 253 kts 144°
2026-05-05 04:03 43.45095 15.98294 3581 ft 248 kts 143°
2026-05-05 04:03 43.43741 15.99745 3303 ft 244 kts 143°
2026-05-05 04:04 43.42438 16.01197 3052 ft 237 kts 137°
2026-05-05 04:04 43.41460 16.02975 2846 ft 235 kts 116°
2026-05-05 04:04 43.41099 16.05105 2789 ft 221 kts 92°
2026-05-05 04:04 43.41385 16.07069 2811 ft 201 kts 70°
2026-05-05 04:05 43.42060 16.08630 2807 ft 179 kts 58°
2026-05-05 04:05 43.42765 16.09898 2817 ft 159 kts 57°
2026-05-05 04:05 43.43442 16.11089 2804 ft 158 kts 57°
2026-05-05 04:05 43.44121 16.12290 2798 ft 159 kts 57°
2026-05-05 04:06 43.44801 16.13503 2782 ft 157 kts 58°
2026-05-05 04:06 43.45448 16.14645 2652 ft 151 kts 57°
2026-05-05 04:06 43.46081 16.15771 2428 ft 148 kts 58°
2026-05-05 04:06 43.46703 16.16883 2192 ft 144 kts 59°
2026-05-05 04:07 43.47306 16.17963 2002 ft 142 kts 59°
2026-05-05 04:07 43.47909 16.19046 1805 ft 142 kts 57°
2026-05-05 04:07 43.48506 16.20119 1610 ft 141 kts 56°
2026-05-05 04:07 43.49104 16.21193 1404 ft 140 kts 56°
2026-05-05 04:08 43.49698 16.22259 1215 ft 140 kts 53°
2026-05-05 04:08 43.50291 16.23324 1033 ft 140 kts 52°
2026-05-05 04:08 43.50883 16.24388 840 ft 140 kts 52°
2026-05-05 04:08 43.51471 16.25446 668 ft 139 kts 52°
2026-05-05 04:09 43.52057 16.26500 503 ft 139 kts 51°
2026-05-05 04:09 43.52644 16.27550 306 ft 138 kts 51°
2026-05-05 04:09 43.53227 16.28586 111 ft 136 kts 51°
2026-05-05 04:09 43.53740 16.29519 87 ft 100 kts 53°
2026-05-05 04:10 43.54056 16.30083 68 ft 48 kts 51°
2026-05-05 04:10 43.54159 16.30286 71 ft 11 kts 69°
2026-05-05 04:10 43.54172 16.30293 67 ft 1 kts 298°
2026-05-05 04:10 43.54169 16.30284 69 ft 2 kts 238°
2026-05-05 04:11 43.54143 16.30240 73 ft 12 kts 230°
2026-05-05 04:11 43.54057 16.30135 74 ft 19 kts 210°
2026-05-05 04:11 43.53947 16.30074 65 ft 16 kts 198°
2026-05-05 04:11 43.53861 16.29979 64 ft 16 kts 233°
2026-05-05 04:12 43.53809 16.29885 71 ft 9 kts 232°
2026-05-05 04:12 43.53767 16.29817 68 ft 9 kts 213°
2026-05-05 04:12 43.53741 16.29821 71 ft 1 kts 127°
2026-05-05 04:12 43.53737 16.29839 63 ft 4 kts 110°
2026-05-05 04:13 43.53731 16.29859 67 ft 1 kts 115°
2026-05-05 04:13 43.53729 16.29865 64 ft 0 kts 115°
2026-05-05 04:13 43.53728 16.29865 63 ft 0 kts 115°
2026-05-05 04:17 43.53729 16.29865 71 ft 0 kts 115°